STARLINK-32184 (60942 NORAD) Tracking and Keplerian Element Data

This shows tracking and keplerian element data for the satellite.

Feedback or suggestion? Click here.




ElementValue
Catalog60942
NameSTARLINK-32184
Epoch Orbit768
Epoch Day286.48941361
Epoch Year2024
RAAN355.8537
Inclination53.1597
Eccentricity0.0001239
Argument of Perigee87.5423
Mean Anonmoly272.5724
Mean Motion15.39653546
Decay Rate0.00010485
L11 60942U 24155U 24286.48941361 .00010485 00000+0 27146-3 0 9996
L22 60942 53.1597 355.8537 0001239 87.5423 272.5724 15.39653546 7680



Live tracking and technical data element details for STARLINK-32184 (NORAD 60942). STARLINK-32184 can be tracked NOW for your location showing map with azimuth and elevation plus other details from your city location.







IsCatalogInMostPopularTable: catalog: 60942, numindb: 9
Update: records affected: 1



GetName: 60942 STARLINK-32184

Hit Count: updated at: Tue, 03 Dec 2024 03:39:23 GMT